| time (UTC) | temp F | wind direction | speed knots | gust knots | rain 1hr in | rain 24hr in | rain mn in | humidity % | barometer mb |
| 20260502151913 | 49 | 147 | 1.7 | 6.1 | 0.00 | 0.00 | 0.00 | 55 | 1003.3 |
| 20260502151409 | 49 | 54 | 0.9 | 3.5 | 0.00 | 0.00 | 0.00 | 56 | 1003.4 |
| 20260502150907 | 47 | 166 | 4.3 | 8.7 | 0.00 | 0.00 | 0.00 | 54 | 1003.3 |
| 20260502150403 | 47 | 125 | 3.5 | 8.7 | 0.00 | 0.00 | 0.00 | 54 | 1003.5 |
| 20260502130249 | 42 | 122 | 0.9 | 1.7 | 0.00 | 0.00 | 0.00 | 77 | 1003.6 |
| 20260502123735 | 41 | 121 | 1.7 | 6.1 | 0.00 | 0.00 | 0.00 | 78 | 1003.5 |
| 20260502123231 | 41 | 210 | 1.7 | 1.7 | 0.00 | 0.00 | 0.00 | 80 | 1003.5 |
| 20260502122728 | 41 | 141 | 2.6 | 5.2 | 0.00 | 0.00 | 0.00 | 79 | 1003.6 |
| 20260502122224 | 41 | 144 | 0.9 | 3.5 | 0.00 | 0.00 | 0.00 | 82 | 1003.7 |
| 20260502121723 | 41 | 126 | 5.2 | 7.8 | 0.00 | 0.00 | 0.00 | 81 | 1003.5 |
| 20260502121220 | 40 | 253 | 0.9 | 2.6 | 0.00 | 0.00 | 0.00 | 82 | 1003.7 |
| 20260502120716 | 40 | 248 | 0.0 | 1.7 | 0.00 | 0.00 | 0.00 | 84 | 1003.4 |
| 20260502120213 | 40 | 251 | 0.0 | 0.9 | 0.00 | 0.00 | 0.00 | 85 | 1003.7 |
| 20260502115711 | 39 | 237 | 0.0 | 1.7 | 0.00 | 0.00 | 0.00 | 86 | 1003.6 |
| 20260502115208 | 39 | 239 | 0.9 | 1.7 | 0.00 | 0.00 | 0.00 | 87 | 1003.7 |
| 20260502114703 | 39 | 172 | 0.0 | 0.9 | 0.00 | 0.00 | 0.00 | 89 | 1003.7 |
| 20260502114201 | 38 | 243 | 0.0 | 0.9 | 0.00 | 0.00 | 0.00 | 90 | 1003.5 |
| 20260502113658 | 38 | 182 | 0.0 | 0.9 | 0.00 | 0.00 | 0.00 | 91 | 1003.4 |
| 20260502113156 | 37 | 219 | 0.0 | 0.9 | 0.00 | 0.00 | 0.00 | 91 | 1003.3 |
| 20260502112654 | 37 | 165 | 0.0 | 0.0 | 0.00 | 0.00 | 0.00 | 91 | 1003.5 |
| 20260502112151 | 37 | 166 | 0.0 | 0.0 | 0.00 | 0.00 | 0.00 | 91 | 1003.5 |
| 20260502111648 | 37 | 270 | 1.7 | 1.7 | 0.00 | 0.00 | 0.00 | 92 | 1003.5 |
| 20260502111146 | 37 | 214 | 0.0 | 1.7 | 0.00 | 0.00 | 0.00 | 92 | 1003.5 |
| 20260502110643 | 36 | 139 | 0.0 | 0.0 | 0.00 | 0.00 | 0.00 | 92 | 1003.5 |
| 20260502110140 | 36 | 277 | 0.0 | 0.9 | 0.00 | 0.00 | 0.00 | 92 | 1003.5 |
| 20260502105638 | 36 | 227 | 0.0 | 0.0 | 0.00 | 0.00 | 0.00 | 92 | 1003.3 |
| 20260502105135 | 36 | 240 | 0.0 | 0.0 | 0.00 | 0.00 | 0.00 | 92 | 1003.3 |
| 20260502104632 | 36 | 156 | 0.0 | 0.0 | 0.00 | 0.00 | 0.00 | 92 | 1003.5 |
| 20260502104129 | 37 | 227 | 0.0 | 0.0 | 0.00 | 0.00 | 0.00 | 91 | 1003.5 |
| 20260502103627 | 37 | 158 | 0.0 | 0.0 | 0.00 | 0.00 | 0.00 | 91 | 1003.6 |
| 20260502103125 | 37 | 354 | 0.0 | 0.0 | 0.00 | 0.00 | 0.00 | 91 | 1003.7 |
| 20260502102621 | 37 | 135 | 0.0 | 0.0 | 0.00 | 0.00 | 0.00 | 91 | 1003.6 |
| 20260502102118 | 37 | 119 | 0.0 | 0.0 | 0.00 | 0.00 | 0.00 | 90 | 1003.5 |
| 20260502101616 | 37 | 115 | 0.0 | 0.0 | 0.00 | 0.00 | 0.00 | 89 | 1003.6 |
| 20260502101114 | 38 | 134 | 0.9 | 0.9 | 0.00 | 0.00 | 0.00 | 89 | 1003.7 |
| 20260502100613 | 38 | 318 | 0.9 | 0.9 | 0.00 | 0.00 | 0.00 | 89 | 1003.4 |
| 20260502100110 | 38 | 73 | 0.0 | 0.9 | 0.00 | 0.00 | 0.00 | 88 | 1003.6 |
| 20260502091044 | 39 | 225 | 0.0 | 0.0 | 0.00 | 0.00 | 0.00 | 85 | 1003.4 |
| 20260502090541 | 39 | 201 | 0.0 | 0.0 | 0.00 | 0.00 | 0.00 | 85 | 1003.3 |
| 20260502071436 | 44 | 134 | 1.7 | 1.7 | 0.00 | 0.00 | 0.00 | 70 | 1003.3 |
| 20260502070934 | 44 | 256 | 1.7 | 5.2 | 0.00 | 0.00 | 0.00 | 69 | 1003.4 |
| 20260502070431 | 44 | 198 | 0.0 | 1.7 | 0.00 | 0.00 | 0.00 | 71 | 1003.3 |
| 20260502065930 | 44 | 157 | 2.6 | 2.6 | 0.00 | 0.00 | 0.00 | 71 | 1003.3 |
| 20260502065428 | 44 | 230 | 0.0 | 0.9 | 0.00 | 0.00 | 0.00 | 74 | 1003.2 |
| 20260502064926 | 44 | 198 | 0.9 | 2.6 | 0.00 | 0.00 | 0.00 | 72 | 1003.1 |
| 20260502064423 | 44 | 234 | 0.9 | 1.7 | 0.00 | 0.00 | 0.00 | 72 | 1003.3 |
| 20260502063920 | 44 | 154 | 1.7 | 1.7 | 0.00 | 0.00 | 0.00 | 71 | 1003.2 |
| 20260502063418 | 45 | 236 | 0.0 | 1.7 | 0.00 | 0.00 | 0.00 | 73 | 1003.2 |
| 20260502062916 | 45 | 188 | 0.9 | 3.5 | 0.00 | 0.00 | 0.00 | 72 | 1003.3 |
| 20260502062412 | 45 | 252 | 1.7 | 2.6 | 0.00 | 0.00 | 0.00 | 71 | 1003.5 |
| 20260502061911 | 46 | 204 | 1.7 | 2.6 | 0.00 | 0.00 | 0.00 | 73 | 1003.6 |
| 20260502061409 | 46 | 163 | 3.5 | 3.5 | 0.00 | 0.00 | 0.00 | 74 | 1003.5 |
| 20260502060904 | 46 | 165 | 1.7 | 1.7 | 0.00 | 0.00 | 0.00 | 75 | 1003.5 |
| 20260502060359 | 46 | 173 | 0.9 | 5.2 | 0.00 | 0.00 | 0.00 | 73 | 1003.5 |
| 20260502055857 | 46 | 142 | 1.7 | 2.6 | 0.00 | 0.00 | 0.00 | 72 | 1003.6 |
| 20260502055354 | 46 | 216 | 1.7 | 2.6 | 0.00 | 0.00 | 0.00 | 75 | 1003.7 |
| 20260502054854 | 46 | 280 | 1.7 | 3.5 | 0.00 | 0.00 | 0.00 | 76 | 1003.6 |
| 20260502054351 | 46 | 161 | 1.7 | 2.6 | 0.00 | 0.00 | 0.00 | 77 | 1003.5 |
| 20260502053849 | 46 | 114 | 2.6 | 6.1 | 0.00 | 0.00 | 0.00 | 77 | 1003.6 |
| 20260502053346 | 46 | 235 | 2.6 | 2.6 | 0.00 | 0.00 | 0.00 | 77 | 1003.7 |
| 20260502052843 | 46 | 268 | 0.0 | 0.0 | 0.00 | 0.00 | 0.00 | 78 | 1003.8 |
| 20260502052341 | 46 | 212 | 0.0 | 0.9 | 0.00 | 0.00 | 0.00 | 78 | 1003.8 |
| 20260502051839 | 46 | 235 | 0.0 | 0.9 | 0.00 | 0.00 | 0.00 | 78 | 1003.6 |
| 20260502051338 | 45 | 289 | 0.9 | 1.7 | 0.00 | 0.00 | 0.00 | 79 | 1003.6 |
| 20260502050833 | 45 | 266 | 1.7 | 1.7 | 0.00 | 0.00 | 0.00 | 78 | 1003.5 |
| 20260502050330 | 45 | 152 | 0.0 | 2.6 | 0.00 | 0.00 | 0.00 | 77 | 1003.6 |
| 20260502045827 | 46 | 250 | 3.5 | 7.0 | 0.00 | 0.00 | 0.00 | 76 | 1003.4 |
| 20260502045324 | 46 | 257 | 0.9 | 5.2 | 0.00 | 0.00 | 0.00 | 76 | 1003.5 |
| 20260502044821 | 46 | 153 | 1.7 | 2.6 | 0.00 | 0.00 | 0.00 | 75 | 1003.5 |
| 20260502044317 | 46 | 254 | 2.6 | 6.1 | 0.00 | 0.00 | 0.00 | 75 | 1003.7 |
| 20260502043814 | 46 | 162 | 0.9 | 3.5 | 0.00 | 0.00 | 0.00 | 75 | 1003.7 |
| 20260502043312 | 46 | 243 | 1.7 | 3.5 | 0.00 | 0.00 | 0.00 | 75 | 1003.3 |
| 20260502042811 | 46 | 143 | 4.3 | 5.2 | 0.00 | 0.00 | 0.00 | 74 | 1003.6 |
| 20260502042309 | 46 | 185 | 1.7 | 5.2 | 0.00 | 0.00 | 0.00 | 74 | 1003.6 |
| 20260502041806 | 46 | 177 | 0.9 | 3.5 | 0.00 | 0.00 | 0.00 | 73 | 1003.3 |
| 20260502041303 | 47 | 141 | 0.9 | 1.7 | 0.00 | 0.00 | 0.00 | 73 | 1003.5 |
| 20260502040800 | 47 | 163 | 3.5 | 6.1 | 0.00 | 0.00 | 0.00 | 72 | 1003.5 |
| 20260502040257 | 47 | 246 | 3.5 | 6.1 | 0.00 | 0.00 | 0.00 | 73 | 1003.4 |
| 20260502035753 | 47 | 280 | 2.6 | 3.5 | 0.00 | 0.00 | 0.00 | 73 | 1003.6 |
| 20260502035250 | 47 | 237 | 0.0 | 1.7 | 0.00 | 0.00 | 0.00 | 73 | 1003.5 |
| 20260502034747 | 47 | 120 | 1.7 | 3.5 | 0.00 | 0.00 | 0.00 | 73 | 1003.6 |
| 20260502034246 | 47 | 124 | 1.7 | 3.5 | 0.00 | 0.00 | 0.00 | 74 | 1003.6 |
| 20260502033743 | 47 | 268 | 1.7 | 5.2 | 0.00 | 0.00 | 0.00 | 74 | 1003.7 |
| 20260502033241 | 47 | 141 | 1.7 | 7.0 | 0.00 | 0.00 | 0.00 | 74 | 1003.5 |
| 20260502032737 | 47 | 150 | 3.5 | 6.1 | 0.00 | 0.00 | 0.00 | 73 | 1003.5 |
| 20260502032233 | 47 | 255 | 0.9 | 3.5 | 0.00 | 0.00 | 0.00 | 74 | 1003.5 |
| 20260502031732 | 48 | 259 | 1.7 | 7.8 | 0.00 | 0.00 | 0.00 | 73 | 1003.6 |
| 20260502031229 | 48 | 247 | 2.6 | 3.5 | 0.00 | 0.00 | 0.00 | 73 | 1003.3 |
| 20260502030728 | 48 | 160 | 1.7 | 2.6 | 0.00 | 0.00 | 0.00 | 75 | 1003.3 |
| 20260502030225 | 48 | 104 | 1.7 | 2.6 | 0.00 | 0.00 | 0.00 | 75 | 1003.2 |
| 20260502025722 | 49 | 241 | 0.9 | 5.2 | 0.00 | 0.00 | 0.00 | 75 | 1003.2 |
| 20260502025220 | 49 | 241 | 1.7 | 5.2 | 0.00 | 0.00 | 0.00 | 75 | 1003.3 |
| 20260502024718 | 49 | 186 | 1.7 | 5.2 | 0.00 | 0.00 | 0.00 | 74 | 1003.0 |
| 20260502024216 | 49 | 113 | 0.0 | 0.9 | 0.00 | 0.00 | 0.00 | 75 | 1003.2 |
| 20260502023714 | 49 | 188 | 1.7 | 3.5 | 0.00 | 0.00 | 0.00 | 74 | 1003.0 |
| 20260502023210 | 49 | 117 | 2.6 | 7.0 | 0.00 | 0.00 | 0.00 | 74 | 1003.1 |
| 20260502022708 | 49 | 149 | 1.7 | 5.2 | 0.00 | 0.00 | 0.00 | 74 | 1002.9 |
| 20260502022204 | 49 | 164 | 1.7 | 2.6 | 0.00 | 0.00 | 0.00 | 74 | 1003.1 |
| 20260502021702 | 49 | 275 | 0.9 | 5.2 | 0.00 | 0.00 | 0.00 | 74 | 1002.8 |
| 20260502021159 | 49 | 173 | 2.6 | 5.2 | 0.00 | 0.00 | 0.00 | 74 | 1002.8 |
| 20260502020656 | 49 | 179 | 0.9 | 7.8 | 0.00 | 0.00 | 0.00 | 75 | 1002.5 |
| 20260502020152 | 50 | 158 | 0.9 | 1.7 | 0.00 | 0.00 | 0.00 | 74 | 1002.3 |
| 20260502015651 | 50 | 152 | 5.2 | 7.8 | 0.00 | 0.00 | 0.00 | 72 | 1002.3 |
| 20260502015147 | 51 | 126 | 2.6 | 3.5 | 0.00 | 0.00 | 0.00 | 72 | 1002.2 |
| 20260502014644 | 51 | 144 | 0.9 | 1.7 | 0.00 | 0.00 | 0.00 | 71 | 1002.2 |
| 20260502014141 | 51 | 171 | 1.7 | 2.6 | 0.00 | 0.00 | 0.00 | 70 | 1002.1 |
| 20260502013637 | 51 | 141 | 1.7 | 3.5 | 0.00 | 0.00 | 0.00 | 71 | 1002.1 |
| 20260502013132 | 51 | 42 | 0.0 | 0.9 | 0.00 | 0.00 | 0.00 | 69 | 1002.0 |
| 20260502012630 | 52 | 178 | 0.0 | 1.7 | 0.00 | 0.00 | 0.00 | 68 | 1002.0 |
| 20260502012128 | 52 | 80 | 1.7 | 2.6 | 0.00 | 0.00 | 0.00 | 67 | 1002.1 |
| 20260502011624 | 52 | 218 | 0.0 | 1.7 | 0.00 | 0.00 | 0.00 | 66 | 1001.9 |
| 20260502011120 | 53 | 190 | 1.7 | 3.5 | 0.00 | 0.00 | 0.00 | 65 | 1001.7 |
| 20260502010618 | 53 | 117 | 0.0 | 2.6 | 0.00 | 0.00 | 0.00 | 63 | 1001.6 |
| 20260502010115 | 53 | 144 | 2.6 | 3.5 | 0.00 | 0.00 | 0.00 | 61 | 1001.6 |
| 20260502005612 | 53 | 138 | 2.6 | 3.5 | 0.00 | 0.00 | 0.00 | 61 | 1001.3 |
| 20260502005110 | 55 | 38 | 0.0 | 0.9 | 0.00 | 0.00 | 0.00 | 56 | 1000.9 |
| 20260502004605 | 55 | 38 | 0.0 | 0.9 | 0.00 | 0.00 | 0.00 | 56 | 1000.9 |
| 20260502004102 | 55 | 129 | 1.7 | 3.5 | 0.00 | 0.00 | 0.00 | 54 | 1000.9 |
| 20260502003601 | 56 | 148 | 2.6 | 7.0 | 0.00 | 0.00 | 0.00 | 53 | 1000.5 |
| 20260502003057 | 56 | 175 | 3.5 | 5.2 | 0.00 | 0.00 | 0.00 | 52 | 1000.4 |
| 20260502002553 | 56 | 237 | 1.7 | 3.5 | 0.00 | 0.00 | 0.00 | 51 | 1000.2 |
| 20260502002050 | 57 | 283 | 1.7 | 3.5 | 0.00 | 0.00 | 0.00 | 51 | 1000.3 |
| 20260502001549 | 57 | 244 | 2.6 | 2.6 | 0.00 | 0.00 | 0.00 | 47 | 1000.0 |
| 20260502001045 | 58 | 130 | 3.5 | 8.7 | 0.00 | 0.00 | 0.00 | 44 | 1000.0 |
| 20260502000543 | 58 | 171 | 1.7 | 3.5 | 0.00 | 0.00 | 0.00 | 43 | 999.7 |
| 20260502000040 | 58 | 241 | 0.9 | 3.5 | 0.00 | 0.00 | 0.00 | 43 | 999.6 |
| 20260501235536 | 58 | 159 | 0.9 | 0.9 | 0.00 | 0.00 | 0.00 | 45 | 999.5 |
| 20260501235032 | 58 | 226 | 0.0 | 0.9 | 0.00 | 0.00 | 0.00 | 45 | 999.2 |
| 20260501234528 | 59 | 237 | 0.9 | 1.7 | 0.00 | 0.00 | 0.00 | 43 | 999.5 |
| 20260501234026 | 60 | 190 | 0.9 | 0.9 | 0.00 | 0.00 | 0.00 | 41 | 999.5 |
| 20260501233524 | 60 | 203 | 2.6 | 2.6 | 0.00 | 0.00 | 0.00 | 39 | 999.5 |
| 20260501233020 | 61 | 227 | 0.9 | 1.7 | 0.00 | 0.00 | 0.00 | 38 | 999.2 |
| 20260501232516 | 61 | 190 | 2.6 | 13.0 | 0.00 | 0.00 | 0.00 | 36 | 999.2 |
| 20260501232014 | 61 | 169 | 1.7 | 11.3 | 0.00 | 0.00 | 0.00 | 38 | 999.0 |
| 20260501231512 | 61 | 134 | 1.7 | 7.0 | 0.00 | 0.00 | 0.00 | 37 | 999.0 |
| 20260501231010 | 61 | 169 | 1.7 | 6.1 | 0.00 | 0.00 | 0.00 | 37 | 999.2 |
| 20260501230509 | 61 | 273 | 1.7 | 3.5 | 0.00 | 0.00 | 0.00 | 37 | 999.4 |
| 20260501230006 | 61 | 166 | 1.7 | 5.2 | 0.00 | 0.00 | 0.00 | 38 | 999.4 |
| 20260501225504 | 61 | 263 | 1.7 | 2.6 | 0.00 | 0.00 | 0.00 | 36 | 999.1 |
| 20260501224959 | 61 | 152 | 3.5 | 8.7 | 0.00 | 0.00 | 0.00 | 36 | 999.0 |
| 20260501224457 | 62 | 192 | 1.7 | 3.5 | 0.00 | 0.00 | 0.00 | 36 | 999.2 |
| 20260501223954 | 63 | 257 | 5.2 | 7.8 | 0.00 | 0.00 | 0.00 | 35 | 999.2 |
| 20260501223450 | 63 | 243 | 3.5 | 5.2 | 0.00 | 0.00 | 0.00 | 36 | 999.2 |
| 20260501222945 | 63 | 249 | 1.7 | 7.0 | 0.00 | 0.00 | 0.00 | 34 | 999.2 |
| 20260501222443 | 62 | 220 | 3.5 | 7.8 | 0.00 | 0.00 | 0.00 | 34 | 999.1 |
| 20260501221939 | 63 | 147 | 1.7 | 5.2 | 0.00 | 0.00 | 0.00 | 35 | 999.1 |
| 20260501221436 | 64 | 173 | 6.1 | 7.0 | 0.00 | 0.00 | 0.00 | 32 | 999.1 |
| 20260501220934 | 66 | 222 | 4.3 | 11.3 | 0.00 | 0.00 | 0.00 | 34 | 998.9 |
| 20260501220432 | 66 | 223 | 2.6 | 3.5 | 0.00 | 0.00 | 0.00 | 31 | 998.9 |
| 20260501215927 | 64 | 158 | 0.9 | 1.7 | 0.00 | 0.00 | 0.00 | 31 | 999.0 |
| 20260501215424 | 64 | 248 | 0.9 | 1.7 | 0.00 | 0.00 | 0.00 | 36 | 999.2 |
| 20260501214920 | 65 | 222 | 0.9 | 2.6 | 0.00 | 0.00 | 0.00 | 37 | 999.0 |
| 20260501214415 | 64 | 148 | 0.9 | 2.6 | 0.00 | 0.00 | 0.00 | 32 | 999.1 |
| 20260501213911 | 64 | 160 | 1.7 | 3.5 | 0.00 | 0.00 | 0.00 | 32 | 998.9 |
| 20260501213408 | 64 | 244 | 2.6 | 3.5 | 0.00 | 0.00 | 0.00 | 31 | 999.0 |
| 20260501212903 | 64 | 251 | 0.9 | 5.2 | 0.00 | 0.00 | 0.00 | 33 | 999.1 |
| 20260501212400 | 65 | 197 | 2.6 | 7.0 | 0.00 | 0.00 | 0.00 | 32 | 999.2 |
| 20260501211857 | 66 | 258 | 1.7 | 2.6 | 0.00 | 0.00 | 0.00 | 27 | 999.1 |
| 20260501211355 | 65 | 156 | 3.5 | 7.8 | 0.00 | 0.00 | 0.00 | 30 | 998.9 |
| 20260501210852 | 65 | 304 | 1.7 | 2.6 | 0.00 | 0.00 | 0.00 | 29 | 999.5 |
| 20260501210349 | 65 | 208 | 3.5 | 3.5 | 0.00 | 0.00 | 0.00 | 30 | 999.2 |
| 20260501205845 | 65 | 269 | 3.5 | 8.7 | 0.00 | 0.00 | 0.00 | 28 | 999.0 |
| 20260501205342 | 66 | 169 | 5.2 | 14.8 | 0.00 | 0.00 | 0.00 | 31 | 998.9 |
| 20260501204839 | 67 | 181 | 3.5 | 5.2 | 0.00 | 0.00 | 0.00 | 31 | 998.9 |
| 20260501204335 | 66 | 238 | 5.2 | 7.8 | 0.00 | 0.00 | 0.00 | 30 | 999.0 |
| 20260501203832 | 67 | 242 | 1.7 | 6.1 | 0.00 | 0.00 | 0.00 | 32 | 998.9 |
| 20260501203329 | 67 | 358 | 2.6 | 5.2 | 0.00 | 0.00 | 0.00 | 30 | 999.1 |
| 20260501202826 | 67 | 232 | 5.2 | 14.8 | 0.00 | 0.00 | 0.00 | 33 | 999.0 |
| 20260501202323 | 67 | 277 | 7.0 | 9.6 | 0.00 | 0.00 | 0.00 | 27 | 999.1 |
| 20260501201820 | 67 | 141 | 4.3 | 7.8 | 0.00 | 0.00 | 0.00 | 34 | 999.2 |
| 20260501201316 | 67 | 262 | 5.2 | 7.0 | 0.00 | 0.00 | 0.00 | 33 | 999.2 |
| 20260501200813 | 66 | 184 | 3.5 | 6.1 | 0.00 | 0.00 | 0.00 | 35 | 999.1 |
| 20260501200310 | 65 | 305 | 4.3 | 7.8 | 0.00 | 0.00 | 0.00 | 32 | 999.2 |
| 20260501195808 | 65 | 178 | 3.5 | 5.2 | 0.00 | 0.00 | 0.00 | 34 | 999.1 |
| 20260501195305 | 67 | 174 | 3.5 | 5.2 | 0.00 | 0.00 | 0.00 | 33 | 999.6 |
| 20260501194759 | 66 | 252 | 2.6 | 8.7 | 0.00 | 0.00 | 0.00 | 33 | 999.7 |
| 20260501194256 | 65 | 164 | 0.9 | 5.2 | 0.00 | 0.00 | 0.00 | 36 | 999.7 |
| 20260501193752 | 65 | 219 | 1.7 | 8.7 | 0.00 | 0.00 | 0.00 | 36 | 999.7 |
| 20260501193251 | 65 | 160 | 2.6 | 5.2 | 0.00 | 0.00 | 0.00 | 36 | 1000.0 |
| 20260501192748 | 64 | 225 | 5.2 | 7.8 | 0.00 | 0.00 | 0.00 | 33 | 1000.1 |
| 20260501192244 | 65 | 235 | 4.3 | 6.1 | 0.00 | 0.00 | 0.00 | 34 | 1000.1 |
| 20260501191742 | 65 | 322 | 0.9 | 6.1 | 0.00 | 0.00 | 0.00 | 34 | 1000.5 |
| 20260501191239 | 65 | 246 | 0.0 | 3.5 | 0.00 | 0.00 | 0.00 | 36 | 1000.5 |
| 20260501190736 | 65 | 176 | 3.5 | 3.5 | 0.00 | 0.00 | 0.00 | 35 | 1000.6 |
| 20260501190231 | 64 | 142 | 3.5 | 5.2 | 0.00 | 0.00 | 0.00 | 34 | 1000.8 |
| 20260501185727 | 64 | 154 | 0.9 | 5.2 | 0.00 | 0.00 | 0.00 | 36 | 1000.7 |
| 20260501185223 | 64 | 278 | 3.5 | 9.6 | 0.00 | 0.00 | 0.00 | 36 | 1000.8 |
| 20260501184719 | 64 | 274 | 2.6 | 7.0 | 0.00 | 0.00 | 0.00 | 37 | 1000.7 |
| 20260501184215 | 65 | 273 | 2.6 | 6.1 | 0.00 | 0.00 | 0.00 | 34 | 1000.7 |
| 20260501183711 | 64 | 257 | 1.7 | 8.7 | 0.00 | 0.00 | 0.00 | 36 | 1000.7 |
| 20260501183208 | 64 | 268 | 3.5 | 6.1 | 0.00 | 0.00 | 0.00 | 33 | 1000.8 |
| 20260501182704 | 64 | 262 | 3.5 | 7.0 | 0.00 | 0.00 | 0.00 | 40 | 1000.8 |
| 20260501182201 | 64 | 251 | 2.6 | 7.0 | 0.00 | 0.00 | 0.00 | 36 | 1001.1 |
| 20260501181658 | 63 | 239 | 1.7 | 6.1 | 0.00 | 0.00 | 0.00 | 36 | 1001.1 |
| 20260501181155 | 63 | 288 | 1.7 | 7.8 | 0.00 | 0.00 | 0.00 | 37 | 1001.1 |
| 20260501180654 | 63 | 253 | 2.6 | 7.8 | 0.00 | 0.00 | 0.00 | 39 | 1000.9 |
| 20260501180149 | 63 | 32 | 0.0 | 2.6 | 0.00 | 0.00 | 0.00 | 44 | 1001.1 |
| 20260501175646 | 63 | 259 | 3.5 | 7.8 | 0.00 | 0.00 | 0.00 | 40 | 1001.3 |
| 20260501175143 | 63 | 145 | 1.7 | 2.6 | 0.00 | 0.00 | 0.00 | 39 | 1001.4 |
| 20260501174639 | 62 | 129 | 0.9 | 1.7 | 0.00 | 0.00 | 0.00 | 41 | 1001.3 |
| 20260501174137 | 63 | 281 | 2.6 | 8.7 | 0.00 | 0.00 | 0.00 | 40 | 1001.3 |
| 20260501173635 | 62 | 255 | 0.9 | 1.7 | 0.00 | 0.00 | 0.00 | 43 | 1001.5 |
| 20260501173131 | 61 | 145 | 0.9 | 1.7 | 0.00 | 0.00 | 0.00 | 40 | 1001.6 |
| 20260501172627 | 60 | 159 | 1.7 | 6.1 | 0.00 | 0.00 | 0.00 | 40 | 1001.9 |
| 20260501172122 | 61 | 316 | 3.5 | 8.7 | 0.00 | 0.00 | 0.00 | 39 | 1001.5 |
| 20260501171619 | 60 | 9 | 1.7 | 5.2 | 0.00 | 0.00 | 0.00 | 41 | 1001.9 |
| 20260501171116 | 60 | 249 | 7.0 | 8.7 | 0.00 | 0.00 | 0.00 | 40 | 1001.9 |
| 20260501170613 | 60 | 110 | 4.3 | 5.2 | 0.00 | 0.00 | 0.00 | 41 | 1002.0 |
| 20260501170110 | 61 | 104 | 5.2 | 7.0 | 0.00 | 0.00 | 0.00 | 37 | 1002.1 |
| 20260501165607 | 60 | 147 | 0.9 | 5.2 | 0.00 | 0.00 | 0.00 | 36 | 1001.8 |
| 20260501165104 | 60 | 251 | 9.6 | 11.3 | 0.00 | 0.00 | 0.00 | 36 | 1001.9 |
| 20260501164602 | 61 | 271 | 3.5 | 6.1 | 0.00 | 0.00 | 0.00 | 35 | 1002.0 |
| 20260501164059 | 61 | 40 | 1.7 | 3.5 | 0.00 | 0.00 | 0.00 | 38 | 1002.1 |
| 20260501163555 | 61 | 87 | 0.9 | 2.6 | 0.00 | 0.00 | 0.00 | 39 | 1002.1 |
| 20260501163052 | 58 | 260 | 8.7 | 9.6 | 0.00 | 0.00 | 0.00 | 39 | 1002.2 |
| 20260501162549 | 58 | 177 | 0.9 | 5.2 | 0.00 | 0.00 | 0.00 | 51 | 1002.5 |
| 20260501162046 | 58 | 233 | 0.9 | 5.2 | 0.00 | 0.00 | 0.00 | 42 | 1002.5 |
| 20260501161543 | 59 | 23 | 7.0 | 8.7 | 0.00 | 0.00 | 0.00 | 46 | 1002.5 |
| 20260501161039 | 58 | 60 | 5.2 | 7.0 | 0.00 | 0.00 | 0.00 | 44 | 1002.9 |
| 20260501160536 | 59 | 283 | 2.6 | 5.2 | 0.00 | 0.00 | 0.00 | 42 | 1002.9 |
| 20260501160033 | 58 | 86 | 1.7 | 2.6 | 0.00 | 0.00 | 0.00 | 48 | 1002.8 |
| 20260501155529 | 56 | 271 | 1.7 | 6.1 | 0.00 | 0.00 | 0.00 | 45 | 1002.9 |
| 20260501155027 | 56 | 3 | 7.8 | 8.7 | 0.00 | 0.00 | 0.00 | 52 | 1003.1 |